星链-2257 (STARLINK-2257 )

导读

STARLINK-2257是美国SpaceX公司星链(Starlink)星座中的一员,于2021年3月11日发射入轨,属于星链早期批量部署阶段的V1.0卫星,运行于近地轨道。它为星链全球卫星互联网组网提供支撑,助力实现面向全球的宽带互联网接入服务,后续随着星链星座迭代,该卫星和其他初代卫星共同推动了星链从测试走向商用的进程。

Basic Information
目录编号:
47787
目录名称:
STARLINK-2257
国际标识:
2021-018A
轨道中心:
EARTH
卫星名称:
星链-2257
卫星全名:
星链-2257 (STARLINK-2257 )
卫星状态:
在轨 (已飞行1925 天)
发射日期:
2021-03-11 UTC
国别 :
美国 (US)
星等 :
--
Orbit Information
数据来源 国际轨道数据 AOE轨道数据
星历时间 2026-06-18T09:56:34+0800
16小时前
查看轨道信息
2026-06-14T05:00:00+0800
4天前
查看轨道信息
半长轴 6848.816km 6848.847km
偏心率 0.0001073 0.0001186
轨道倾角 53.161° 53.157°
近地点辐角 75.799° 94.634°
升交点赤经 138.662° 158.247°
平近点角 284.314° 100.350°
近地点 469.944km 469.897km
远地点 471.414km 471.523km
周期 94.012分钟 94.013分钟
每日圈数 15.317207 15.317102
Detailed Information
固有亮度:
5
最大亮度:
2.5
卫星平台:
Starlink V1.0
覆盖范围:
全球
运营商:
太空探索技术公司
运营商所在国:
美国
制造商(研发单位):
太空探索技术公司
制造商所在国:
美国
使用方式:
暂无
Satellite Introduction
星链(Starlink)计划是由太空探索技术公司(SpaceX)提出的一个巨型低轨卫星互联网星座项目,计划在2019年至2024年间在太空搭建由约1.2万颗卫星组成的“星链”网络,其中1584颗将部署在地球上空550千米处的近地轨道,并从2020年开始工作。该卫星仍在工作。
2D Orbit Map
3D Orbit Map
Orbit Altitude Analysis Chart
Orbit Inclination Analysis Chart
Orbit Comprehensive Analysis Chart
View Comprehensive Chart